Location: Namasale
(1.5000°N, 32.6167°E)
Time: 16:42:29
(UTC+00:00)

SR - Visible Passes

Search period start: 11 April 2021 00:00
Search period end: 21 April 2021 00:00
Orbit: 573 x 882 km, 66.7° (Epoch: 11 April)

Date Brightness Start Highest point End Pass type
(mag) Time Alt. Az. Time Alt. Az. Time Alt. Az.
11 Apr ? 17:50:22 10° NNW 17:54:17 48° NW 17:54:17 48° NW visible
12 Apr ? 17:00:56 10° N 17:05:54 41° ENE 17:06:58 36° E visible
12 Apr ? 18:46:25 10° W 18:46:27 10° W 18:46:27 10° W visible
13 Apr ? 16:12:55 10° NNE 16:16:03 16° ENE 16:19:03 10° ESE visible
13 Apr ? 17:53:28 10° NW 17:57:56 29° WSW 17:59:13 26° SW visible
14 Apr ? 17:03:03 10° NNW 17:08:19 81° WSW 17:12:03 17° SSE visible
15 Apr ? 16:13:45 10° N 16:18:35 37° ENE 16:23:02 10° SE visible
15 Apr ? 17:58:24 10° W 18:00:12 12° WSW 18:01:59 10° SW visible
16 Apr ? 17:06:03 10° NW 17:10:38 32° WSW 17:14:53 10° S visible
17 Apr ? 16:15:46 10° NNW 16:21:00 89° WSW 16:25:46 10° SSE visible
18 Apr ? 03:03:23 10° SE 03:04:54 11° ESE 03:06:27 10° E visible
18 Apr ? 17:10:36 10° W 17:12:54 13° WSW 17:15:07 10° SW visible
19 Apr ? 16:18:39 10° NW 16:23:19 35° WSW 16:27:38 10° S visible
20 Apr ? 03:02:58 10° SSE 03:07:11 28° ESE 03:11:41 10° NE visible
